Back to catalog

ONEWEB-0622

AliveCommunicationsPO
NORAD 55163·PAYLOAD·🇬🇧 United Kingdom

Launched Jan 10, 2023 from Cape Canaveral Space Force Station

Loading…

Next Passes (next 24 hours)

TLE

FreshSource: CelesTrak SupGP

Epoch: Sep 14, 2026, 21:41 UTC

1 55163C 23004Z   26257.90398565 -.00001021  00000+0 -28853-2 0  2576
2 55163  87.8973   3.2350 0001703 130.9137 269.4931 13.11421166    13

Track ONEWEB-0622 in real time with AllMySat

Download on the App Store